Weather reports worldwide

Advertisment
Quimper, France (7201): temperature & dewpoint: 14.10.2020 17:00:00 - 20.10.2020 17:00:00 (CEST)Quimper, France (7201): temperature 5cm: 14.10.2020 17:00:00 - 20.10.2020 17:00:00 (CEST)Quimper, France (7201): temperature -20cm: 14.10.2020 17:00:00 - 20.10.2020 17:00:00 (CEST)Quimper, France (7201): wind speed & gusts: 14.10.2020 17:00:00 - 20.10.2020 17:00:00 (CEST)Quimper, France (7201): wind direction: 14.10.2020 17:00:00 - 20.10.2020 17:00:00 (CEST)Quimper, France (7201): reduced air pressure: 14.10.2020 17:00:00 - 20.10.2020 17:00:00 (CEST)Quimper, France (7201): visibility: 14.10.2020 17:00:00 - 20.10.2020 17:00:00 (CEST)Quimper, France (7201): sunshine duration: 14.10.2020 17:00:00 - 20.10.2020 17:00:00 (CEST)Quimper, France (7201): precipitation: 14.10.2020 17:00:00 - 20.10.2020 17:00:00 (CEST)
Date & Time tt [°C] td [°C] tt 5cm [°C] tt -20cm [°C] ff [km/h] ff [kn] fx [km/h] fx [kn] dd ppp [hPa] vv [km] sd [min] rr [mm]
20.10.2020 17:00:00 - - - - - - - - - - - - -
20.10.2020 16:00:00 17,8 13,5 18,5 12,5 24 13 40 22 S 1001,0 20 42 0,0
20.10.2020 15:00:00 17,9 14,2 18,4 12,5 28 15 48 26 S 1001,6 40 53 0,0
20.10.2020 14:00:00 17,2 14,3 17,9 12,4 22 12 45 24 S 1002,1 20 45 0,0
20.10.2020 13:00:00 16,9 13,8 17,4 12,4 21 11 44 24 S 1002,4 58 27 0,0
20.10.2020 12:00:00 16,6 14,4 16,9 12,3 23 13 43 23 S 1002,4 20 39 0,0
20.10.2020 11:00:00 15,7 14,1 15,2 12,3 20 11 38 21 S 1002,7 20 2 0,0
20.10.2020 10:00:00 15,0 14,0 14,6 12,3 21 11 35 19 S 1002,4 16 0 0,0
20.10.2020 09:00:00 14,7 13,9 14,3 12,2 20 11 34 18 S 1002,0 15 0 0,0
20.10.2020 08:00:00 14,7 13,9 13,9 12,2 18 10 34 18 S 1001,9 17 0 0,0
20.10.2020 07:00:00 14,3 13,7 13,4 12,2 19 11 38 21 S 1002,3 15 0 0,0
20.10.2020 06:00:00 14,1 13,5 13,5 12,1 17 9 44 24 S 1001,7 14 0 0,0
20.10.2020 05:00:00 14,8 14,2 14,3 12,1 23 13 46 25 SSW 1001,7 15 0 0,0
20.10.2020 04:00:00 15,0 14,4 14,0 12,0 15 8 33 18 S 1001,8 18 0 0,0
20.10.2020 03:00:00 14,6 14,0 13,8 12,0 14 8 29 16 S 1002,1 15 0 0,0
20.10.2020 02:00:00 14,3 13,7 13,7 12,0 12 7 39 21 S 1002,2 10 0 0,4
20.10.2020 01:00:00 14,2 13,4 13,6 11,9 12 6 26 14 SSE 1002,6 13 0 0,4
20.10.2020 00:00:00 14,4 13,8 13,6 11,9 17 9 45 25 S 1003,2 15 0 0,6
19.10.2020 23:00:00 14,1 13,5 13,4 11,8 17 9 29 15 SSE 1003,8 4,8 0 1,2
19.10.2020 22:00:00 14,0 13,2 13,2 11,8 15 8 35 19 SSE 1004,4 6 0 1,8
19.10.2020 21:00:00 14,3 12,3 13,3 11,7 20 11 45 24 SE 1004,4 14 0 0,0
19.10.2020 20:00:00 14,5 11,5 13,5 11,7 23 12 50 27 SE 1004,7 32 0 0,0
19.10.2020 19:00:00 14,3 10,5 13,9 11,6 26 14 49 26 SE 1004,8 42 16 0,0
19.10.2020 18:00:00 14,3 9,9 14,3 11,6 26 14 47 25 SE 1005,2 39 0 0,0
19.10.2020 17:00:00 14,6 9,6 14,5 11,5 24 13 49 27 SE 1006,6 18 11 0,0
19.10.2020 16:00:00 14,7 9,7 15,1 11,5 25 14 44 24 SE 1007,9 48 11 0,0
19.10.2020 15:00:00 14,6 9,8 15,1 11,4 19 11 40 22 SE 1009,0 39 0 0,0
19.10.2020 14:00:00 13,9 10,5 14,4 11,4 18 10 37 20 SE 1010,6 32 0 0,0
19.10.2020 13:00:00 13,8 10,0 15,1 11,5 24 13 39 21 SSE 1012,2 36 53 0,0
19.10.2020 12:00:00 12,4 10,1 12,3 11,5 16 9 34 19 SE 1012,7 20 11 0,0
19.10.2020 11:00:00 11,5 9,6 9,0 11,5 16 9 29 16 ESE 1013,6 16 22 0,0
19.10.2020 10:00:00 8,7 7,6 7,9 11,5 10 6 18 10 ESE 1014,6 13 28 0,0
19.10.2020 09:00:00 8,1 7,3 7,3 11,5 10 6 18 10 ESE 1015,3 12 0 0,0
19.10.2020 08:00:00 7,8 7,2 5,9 11,6 8 5 22 12 E 1015,5 11 0 0,0
19.10.2020 07:00:00 7,4 6,7 6,2 11,6 8 4 18 10 E 1016,3 14 0 0,0
19.10.2020 06:00:00 8,5 7,1 7,6 11,6 10 5 18 10 SE 1017,0 17 0 0,0
19.10.2020 05:00:00 8,5 7,1 7,4 11,7 8 4 15 8 E 1017,6 18 0 0,0
19.10.2020 04:00:00 7,9 6,7 5,4 11,6 6 3 13 7 E 1019,1 18 0 0,0
19.10.2020 03:00:00 7,3 5,9 5,2 11,7 7 4 12 6 ENE 1019,8 19 0 0,0
19.10.2020 02:00:00 8,4 6,4 6,6 11,7 7 4 11 6 E 1020,2 27 0 0,0
19.10.2020 01:00:00 7,4 6,0 6,4 11,7 8 4 12 7 E 1020,9 26 0 0,0
19.10.2020 00:00:00 7,6 6,4 6,5 11,7 8 4 11 6 E 1021,4 19 0 0,0
18.10.2020 23:00:00 8,2 6,8 7,0 11,7 6 3 11 6 E 1021,6 19 0 0,0
18.10.2020 22:00:00 7,7 6,6 6,4 11,7 6 3 10 5 E 1021,8 18 0 0,0
18.10.2020 21:00:00 7,9 6,5 6,0 11,6 5 3 11 6 E 1022,4 31 0 0,0
18.10.2020 20:00:00 9,7 7,1 8,3 11,5 9 5 15 8 ESE 1022,2 49 0 0,0
18.10.2020 19:00:00 11,3 7,6 10,7 11,5 8 5 22 12 SE 1022,2 50 28 0,0
18.10.2020 18:00:00 13,2 8,5 13,5 11,4 16 8 24 13 SSE 1022,4 36 35 0,0
18.10.2020 17:00:00 13,0 8,5 14,3 11,3 14 8 23 13 SSE 1022,8 41 6 0,0
18.10.2020 16:00:00 13,9 8,7 14,4 11,3 14 7 26 14 SSE 1022,7 39 39 0,0
18.10.2020 15:00:00 13,9 8,9 15,6 11,3 16 9 27 15 SSE 1023,3 28 40 0,0
18.10.2020 14:00:00 14,5 9,3 15,6 11,2 16 8 25 14 SE 1023,5 60 57 0,0
18.10.2020 13:00:00 13,3 8,1 14,0 11,2 10 5 22 12 ESE 1024,0 50 60 0,0
18.10.2020 12:00:00 11,8 7,3 13,0 11,3 9 5 18 10 E 1024,3 20 60 0,0
18.10.2020 11:00:00 10,0 7,2 7,5 11,3 7 4 9 5 ENE 1024,2 17 57 0,0
18.10.2020 10:00:00 7,0 5,8 5,3 11,4 7 4 9 5 NE 1024,1 15 13 0,0
18.10.2020 09:00:00 5,9 5,0 2,8 11,4 7 4 10 5 NE 1023,8 15 0 0,0
18.10.2020 08:00:00 5,7 4,5 3,3 11,5 5 3 14 8 NE 1023,4 16 0 0,0
18.10.2020 07:00:00 6,4 5,7 3,7 11,6 9 5 13 7 ENE 1023,2 15 0 0,0
18.10.2020 06:00:00 5,8 5,2 2,8 11,6 7 4 13 7 E 1022,6 17 0 0,0
18.10.2020 05:00:00 6,6 6,0 2,2 11,6 4 2 8 4 E 1022,4 10 0 0,0
18.10.2020 04:00:00 6,7 6,0 3,3 11,7 4 2 10 5 E 1022,6 13 0 0,0
18.10.2020 03:00:00 6,6 5,7 3,6 11,7 6 3 10 6 ENE 1022,6 11 0 0,0
18.10.2020 02:00:00 7,2 6,1 5,5 11,7 4 2 12 7 E 1022,5 16 0 0,0
18.10.2020 01:00:00 8,5 7,4 5,5 11,8 8 4 12 6 E 1022,5 19 0 0,0
18.10.2020 00:00:00 7,4 6,5 5,3 11,8 7 4 9 5 ENE 1022,3 16 0 0,0
17.10.2020 23:00:00 7,2 6,5 4,6 11,8 6 3 8 5 ENE 1022,2 12 0 0,0
17.10.2020 22:00:00 7,7 6,8 3,9 11,7 3 1 9 5 ENE 1022,0 18 0 0,0
17.10.2020 21:00:00 7,4 6,0 4,6 11,7 5 3 10 5 E 1021,6 19 0 0,0
17.10.2020 20:00:00 9,5 6,9 6,1 11,6 4 2 12 7 SE 1021,2 36 0 0,0
17.10.2020 19:00:00 11,1 7,2 11,0 11,6 8 4 22 12 SE 1020,3 15 18 0,0
17.10.2020 18:00:00 12,7 6,7 13,8 11,5 14 8 25 13 SSE 1020,0 35 57 0,0
17.10.2020 17:00:00 13,6 6,9 15,4 11,5 16 8 30 16 SSE 1019,9 60 57 0,0
17.10.2020 16:00:00 13,8 6,6 14,1 11,4 16 9 27 15 SE 1019,6 20 41 0,0
17.10.2020 15:00:00 13,8 7,1 13,3 11,4 15 8 30 16 SE 1019,6 60 37 0,0
17.10.2020 14:00:00 13,0 7,4 13,6 11,5 16 9 30 16 SE 1020,0 19 53 0,0
17.10.2020 13:00:00 12,4 7,9 13,5 11,5 16 9 29 16 ESE 1020,2 17 60 0,0
17.10.2020 12:00:00 11,2 7,7 8,5 11,5 14 8 24 13 ESE 1020,2 12 37 0,0
17.10.2020 11:00:00 8,1 6,7 5,8 11,6 6 4 13 7 E 1020,2 2,2 17 0,0
17.10.2020 10:00:00 6,4 5,3 3,5 11,6 8 5 15 8 NE 1020,2 10 35 0,0
17.10.2020 09:00:00 5,1 4,5 2,4 11,7 8 4 14 7 ENE 1019,7 11 0 0,0
17.10.2020 08:00:00 4,5 3,8 1,2 11,8 7 4 11 6 ENE 1019,5 16 0 0,0
17.10.2020 07:00:00 4,6 3,4 2,0 11,9 7 4 10 5 ENE 1019,6 18 0 0,0
17.10.2020 06:00:00 5,4 4,4 4,1 12,0 7 4 11 6 ENE 1019,7 20 0 0,0
17.10.2020 05:00:00 5,0 4,4 2,1 12,0 6 4 13 7 NE 1020,0 19 0 0,0
17.10.2020 04:00:00 4,4 3,8 1,0 12,1 6 3 11 6 ENE 1020,6 20 0 0,0
17.10.2020 03:00:00 4,2 3,6 1,7 12,2 8 4 9 5 NNE 1021,1 15 0 0,0
17.10.2020 02:00:00 4,8 4,2 1,5 12,2 6 4 10 6 NE 1021,3 19 0 0,0
17.10.2020 01:00:00 5,7 4,8 2,6 12,3 6 4 12 7 NE 1021,5 24 0 0,0
17.10.2020 00:00:00 6,2 5,5 2,3 12,3 7 4 9 5 NE 1021,7 26 0 0,0
16.10.2020 23:00:00 6,8 6,1 1,9 12,3 7 4 8 5 NE 1022,0 19 0 0,0
16.10.2020 22:00:00 7,7 6,6 2,1 12,3 5 3 10 5 ENE 1021,8 20 0 0,0
16.10.2020 21:00:00 7,9 6,4 2,6 12,3 2 1 4 2 NNE 1022,1 23 0 0,0
16.10.2020 20:00:00 9,4 8,0 5,3 12,2 3 2 4 2 NNE 1022,1 20 0 0,0
16.10.2020 19:00:00 11,3 8,0 10,3 12,2 3 2 4 2 WNW 1021,9 60 0 0,0
16.10.2020 18:00:00 12,4 8,3 12,8 12,1 2 1 6 3 SW 1021,9 42 0 0,0
16.10.2020 17:00:00 12,5 7,8 12,7 12,0 4 2 9 5 SE 1022,2 60 0 0,0
16.10.2020 16:00:00 12,9 7,3 13,0 12,0 4 2 13 7 ESE 1022,3 18 0 0,0
16.10.2020 15:00:00 13,9 7,0 15,2 12,0 8 5 16 9 SSE 1022,4 13 47 0,0
16.10.2020 14:00:00 14,6 8,8 14,9 12,0 8 4 19 10 SSE 1022,9 49 53 0,0
16.10.2020 13:00:00 12,9 8,8 12,6 12,0 6 4 13 7 ESE 1023,6 20 10 0,0
16.10.2020 12:00:00 11,0 8,7 10,5 12,1 6 4 11 6 ENE 1024,0 50 0 0,0
16.10.2020 11:00:00 9,3 8,2 8,4 12,1 6 4 11 6 ENE 1024,0 44 0 0,0
16.10.2020 10:00:00 8,1 7,7 5,8 12,2 4 2 8 4 ENE 1023,9 32 0 0,0
16.10.2020 09:00:00 6,7 6,3 3,8 12,3 7 4 10 6 NNE 1023,5 20 0 0,0
16.10.2020 08:00:00 6,8 5,9 4,2 12,4 8 4 12 6 NE 1023,7 41 0 0,0
16.10.2020 07:00:00 7,1 6,2 4,0 12,4 9 5 13 7 NNE 1023,8 46 0 0,0
16.10.2020 06:00:00 6,2 5,5 2,2 12,5 8 5 12 7 NNE 1023,7 49 0 0,0
16.10.2020 05:00:00 6,7 5,6 2,0 12,5 8 4 10 5 NNE 1023,9 55 0 0,0
16.10.2020 04:00:00 6,8 5,9 2,8 12,6 8 4 13 7 N 1024,3 60 0 0,0
16.10.2020 03:00:00 7,3 6,4 4,2 12,6 5 3 11 6 NE 1024,6 57 0 0,0
16.10.2020 02:00:00 7,5 6,8 5,2 12,6 9 5 14 8 NNE 1024,5 54 0 0,0
16.10.2020 01:00:00 7,8 6,9 5,9 12,6 9 5 14 8 NNE 1024,6 43 0 0,0
16.10.2020 00:00:00 8,2 7,1 5,6 12,6 8 4 13 7 NNE 1024,6 48 0 0,0
15.10.2020 23:00:00 8,5 7,3 6,6 12,6 7 4 10 5 N 1024,7 57 0 0,0
15.10.2020 22:00:00 9,3 7,4 7,0 12,6 4 2 10 5 NNE 1024,4 60 0 0,0
15.10.2020 21:00:00 10,4 7,8 9,7 12,6 8 5 13 7 NE 1024,4 60 0 0,0
15.10.2020 20:00:00 11,2 8,1 10,6 12,5 10 5 19 10 NE 1023,8 55 0 0,0
15.10.2020 19:00:00 11,3 7,6 10,7 12,5 11 6 23 13 NNE 1023,4 60 1 0,0
15.10.2020 18:00:00 12,9 9,0 12,5 12,5 12 7 22 12 NNW 1023,0 60 14 0,0
15.10.2020 17:00:00 12,5 8,2 12,4 12,5 13 7 28 15 N 1023,1 55 0 0,0
15.10.2020 16:00:00 12,9 8,4 13,8 12,4 13 7 27 14 N 1023,1 60 5 0,0
15.10.2020 15:00:00 14,5 7,3 15,0 12,4 13 7 27 15 NNE 1023,1 45 32 0,0
15.10.2020 14:00:00 14,2 7,9 12,9 12,4 15 8 32 18 NNE 1023,4 27 11 0,0
15.10.2020 13:00:00 13,5 7,7 13,7 12,5 16 8 35 19 NNE 1023,7 48 29 0,0
15.10.2020 12:00:00 13,3 7,9 15,7 12,5 18 10 30 16 NNE 1023,5 23 60 0,0
15.10.2020 11:00:00 12,1 8,4 9,8 12,5 15 8 23 12 NNE 1023,4 20 53 0,0
15.10.2020 10:00:00 8,8 7,4 6,7 12,5 9 5 19 10 NNE 1023,1 57 0 0,0
15.10.2020 09:00:00 7,5 6,6 6,6 12,6 9 5 18 10 NE 1022,8 54 0 0,0
15.10.2020 08:00:00 8,0 6,8 7,0 12,6 11 6 19 10 NNE 1022,6 60 0 0,0
15.10.2020 07:00:00 8,2 6,5 7,2 12,6 9 5 18 10 N 1022,2 60 0 0,0
15.10.2020 06:00:00 8,6 6,4 7,6 12,7 10 5 17 9 N 1021,9 60 0 0,0
15.10.2020 05:00:00 9,5 7,1 8,3 12,7 9 5 16 8 N 1021,9 60 0 0,0
15.10.2020 04:00:00 8,9 7,2 8,0 12,7 10 5 19 10 N 1022,2 60 0 0,0
15.10.2020 03:00:00 8,8 6,9 7,5 12,8 10 5 19 10 NNE 1022,2 58 0 0,0
15.10.2020 02:00:00 8,1 6,4 6,5 12,8 10 5 18 10 NNE 1021,9 46 0 0,0
15.10.2020 01:00:00 7,8 5,9 6,2 12,8 10 5 16 9 NNE 1021,7 47 0 0,0
15.10.2020 00:00:00 7,7 6,2 6,4 12,8 9 5 16 9 NNE 1021,5 38 0 0,0
14.10.2020 23:00:00 7,9 6,4 6,4 12,8 11 6 18 10 NNE 1021,0 34 0 0,0
14.10.2020 22:00:00 8,1 6,2 6,3 12,8 9 5 15 8 N 1020,7 39 0 0,0
14.10.2020 21:00:00 8,9 5,8 6,7 12,8 7 4 20 11 NNE 1020,6 50 0 0,0
14.10.2020 20:00:00 10,4 6,7 9,5 12,7 13 7 34 19 NE 1019,8 60 2 0,0
14.10.2020 19:00:00 11,8 6,9 11,1 12,7 17 9 33 18 NE 1019,0 60 0 0,0
14.10.2020 18:00:00 12,9 6,5 13,0 12,6 19 10 31 17 NE 1018,2 60 12 0,0
14.10.2020 17:00:00 14,3 6,1 14,4 12,6 16 9 28 15 ENE 1017,6 60 44 0,0

tt = temperature
td = dewpoint
tt 5cm = temperature 5cm
tt -20cm = temperature -20cm
ff = wind speed
fx = gusts
dd = wind direction
ppp = reduced air pressure
vv = visibility
sd = sunshine duration
rr = precipitation

Next stations